Location: Newark
(52.4787°S, 179.0532°W)
Time: 23:21:40
(UTC+00:00)

Envisat - Pass Details

Date: 22 October 2019
Orbit: 764 x 766 km, 98.1° (Epoch: 11 November)

Event Time Altitude Azimuth Distance (km) Brightness Sun altitude
Rises 07:25:40 0° 167° (SSE) 3,278 6.5 -6.5°
Reaches altitude 10° 07:28:00 10° 169° (S) 2,344 5.8 -6.8°
Maximum altitude 07:33:09 69° 251° (WSW) 836 3.5 -7.5°
Drops below altitude 10° 07:38:14 10° 333° (NNW) 2,317 5.5 -8.2°
Sets 07:40:32 0° 335° (NNW) 3,236 6.2 -8.5°
